Terminal Aerodrome Forecast
Issued by NWS Corpus Christi, TX

Home | Current Version | Previous Version | Text Only | Print | Product List | Glossary On
Versions: 1 2 3 4 5 6 7 8 9 10 11 12 13 14 15
000
FTUS44 KCRP 230500
TAFVCT
TAF
KVCT 230526Z 2306/2406 02005KT P6SM VCSH FEW035
     FM230800 03006KT P6SM FEW020 SCT050
      TEMPO 2311/2314 5SM BR
     FM231900 09009KT P6SM SKC=

USA.gov is the U.S. government's official web portal to all federal, state and local government web resources and services.